Location: Buckeye Ditch
(40.9104°N, 122.9517°W)
Time: 23:34:11
(UTC+00:00)

Transit 2A - Pass Details

Date: 27 May 2025
Orbit: 599 x 947 km, 66.7° (Epoch: 20 June)

Event Time Altitude Azimuth Distance (km) Brightness Sun altitude
Rises 14:27:32 0° 248° (WSW) 2,975 8.4 17.2°
Reaches altitude 10° 14:30:27 10° 266° (W) 2,019 7.7 17.7°
Maximum altitude 14:33:41 19° 312° (NW) 1,477 7.3 18.3°
Drops below altitude 10° 14:36:50 10° 358° (N) 1,958 8.3 18.9°
Sets 14:39:38 0° 17° (NNE) 2,854 9.4 19.4°
